{"data":{"norad_id":60334,"intl_designator":"2024-136F","name":"STARLINK-32132","alt_names":[],"object_type":"PAYLOAD","status":"ACTIVE","operator":null,"country":"US","launch_date":"2024-08-02","launch_site_code":"AFETR","launch_vehicle":null,"mission":null,"orbit_class":"UNKNOWN","rcs_meters":null,"size_class":null,"mass_kg":null,"dimensions":null,"purposes":["comms"],"wikipedia_slug":null,"has_3d_model":false,"image_url":null,"decayed_at":null,"tle_current":{"epoch":"2026-09-21T08:07:22.246752Z","epoch_age_seconds":113144,"freshness":"FRESH","line1":"1 60334U 24136F   26264.33845193  .00009380  00000+0  28837-3 0  9998","line2":"2 60334  53.1598 245.8814 0001062  94.7973 265.3151 15.34403234119631","mean_motion":15.34403234,"eccentricity":0.0001062,"inclination_deg":53.1598,"raan_deg":245.8814,"arg_perigee_deg":94.7973,"mean_anomaly_deg":265.3151,"bstar":0.00028837,"rev_number":11963,"period_min":93.847560282189,"perigee_km":461.96713188175,"apogee_km":463.42012430716,"semimajor_km":6840.8306280945,"source":"CELESTRAK","updated_at":"2026-09-22T09:00:49.219737Z"}}}